• In Czech Republic
  • List of Countries
  • For 7 days
  • Water Temperature
  • Satellite Maps
  • Weather Map
  • Weather Widgets
  • user-avatar
    Login

    Hourly Weather Neuquén

    Today, 23 October, Tuesday

    Time Temperature Precipitation Wind Pressure Humidity
    00:00 +11°C° 0 mm 8 mps 740 mmHg 48%
    01:00 +11°C° 0 mm 7 mps 740 mmHg 54%
    02:00 +10°C° 0 mm 7 mps 740 mmHg 57%
    03:00 +10°C° 0 mm 7 mps 740 mmHg 60%
    04:00 +10°C° 0 mm 7 mps 740 mmHg 63%
    05:00 +9°C° 0.3 mm 7 mps 740 mmHg 65%
    06:00 +9°C° 0.3 mm 7 mps 740 mmHg 67%
    07:00 +9°C° 0.3 mm 7 mps 741 mmHg 68%
    08:00 +9°C° 0.6 mm 7 mps 740 mmHg 68%
    09:00 +10°C° 0.6 mm 7 mps 740 mmHg 67%
    10:00 +10°C° 0.6 mm 6 mps 740 mmHg 66%
    11:00 +10°C° 0.6 mm 6 mps 740 mmHg 66%
    12:00 +10°C° 0.6 mm 6 mps 739 mmHg 66%
    13:00 +10°C° 0.6 mm 6 mps 739 mmHg 66%
    14:00 +10°C° 0.6 mm 6 mps 738 mmHg 67%
    15:00 +10°C° 0.6 mm 6 mps 738 mmHg 68%
    16:00 +10°C° 0.6 mm 6 mps 738 mmHg 69%
    17:00 +10°C° 0.6 mm 6 mps 737 mmHg 71%
    18:00 +10°C° 0.6 mm 7 mps 737 mmHg 73%
    19:00 +10°C° 0.6 mm 7 mps 737 mmHg 75%
    20:00 +10°C° 0.5 mm 7 mps 737 mmHg 77%
    21:00 +10°C° 0.5 mm 7 mps 737 mmHg 78%
    22:00 +9°C° 0.5 mm 7 mps 737 mmHg 79%
    23:00 +10°C° 0.7 mm 7 mps 736 mmHg 80%

    Tomorrow, 24 October, Wednesday

    Time Temperature Precipitation Wind Pressure Humidity
    00:00 +10°C° 0.7 mm 7 mps 736 mmHg 81%
    01:00 +10°C° 0.7 mm 6 mps 735 mmHg 82%
    02:00 +10°C° 0.7 mm 6 mps 735 mmHg 83%
    03:00 +10°C° 0.7 mm 6 mps 735 mmHg 84%
    04:00 +10°C° 0.7 mm 5 mps 735 mmHg 85%
    05:00 +11°C° 0.7 mm 4 mps 735 mmHg 85%
    06:00 +12°C° 0.7 mm 4 mps 735 mmHg 85%
    07:00 +12°C° 0.7 mm 3 mps 735 mmHg 85%
    08:00 +13°C° 0.2 mm 3 mps 735 mmHg 81%
    09:00 +14°C° 0.2 mm 3 mps 735 mmHg 77%
    10:00 +14°C° 0.2 mm 3 mps 735 mmHg 73%
    11:00 +15°C° 0.1 mm 4 mps 735 mmHg 66%
    12:00 +16°C° 0.1 mm 5 mps 735 mmHg 59%
    13:00 +19°C° 0.1 mm 6 mps 735 mmHg 53%
    14:00 +19°C° 0 mm 6 mps 735 mmHg 49%
    15:00 +19°C° 0 mm 6 mps 735 mmHg 46%
    16:00 +19°C° 0 mm 6 mps 735 mmHg 42%
    17:00 +17°C° 0 mm 5 mps 735 mmHg 48%
    18:00 +17°C° 0 mm 4 mps 736 mmHg 53%
    19:00 +15°C° 0 mm 4 mps 736 mmHg 58%
    20:00 +14°C° 0 mm 3 mps 736 mmHg 64%
    21:00 +14°C° 0 mm 3 mps 737 mmHg 71%
    22:00 +13°C° 0 mm 3 mps 737 mmHg 77%
    23:00 +13°C° 0 mm 2 mps 737 mmHg 80%

    Day after tomorrow, 25 October, Thursday

    Time Temperature Precipitation Wind Pressure Humidity
    00:00 +13°C° 0 mm 2 mps 737 mmHg 83%
    01:00 +12°C° 0 mm 1 mps 737 mmHg 86%
    02:00 +12°C° 0 mm 1 mps 737 mmHg 87%
    03:00 +12°C° 0 mm 1 mps 737 mmHg 88%
    04:00 +11°C° 0 mm 1 mps 737 mmHg 89%
    05:00 +12°C° 0 mm 1 mps 737 mmHg 85%
    06:00 +13°C° 0 mm 2 mps 738 mmHg 80%
    07:00 +13°C° 0 mm 2 mps 738 mmHg 76%
    08:00 +15°C° 0 mm 2 mps 738 mmHg 68%
    09:00 +17°C° 0 mm 2 mps 738 mmHg 60%
    10:00 +18°C° 0 mm 2 mps 738 mmHg 52%
    11:00 +19°C° 0 mm 2 mps 737 mmHg 48%
    12:00 +20°C° 0 mm 3 mps 737 mmHg 44%
    13:00 +21°C° 0 mm 3 mps 736 mmHg 40%
    14:00 +21°C° 0 mm 3 mps 736 mmHg 40%
    15:00 +21°C° 0 mm 3 mps 736 mmHg 39%
    16:00 +22°C° 0 mm 3 mps 735 mmHg 38%
    17:00 +21°C° 0 mm 4 mps 735 mmHg 41%
    18:00 +20°C° 0 mm 5 mps 736 mmHg 44%
    19:00 +19°C° 0 mm 5 mps 736 mmHg 47%
    20:00 +19°C° 0 mm 6 mps 736 mmHg 50%
    21:00 +17°C° 0 mm 6 mps 737 mmHg 54%
    22:00 +16°C° 0 mm 7 mps 737 mmHg 57%
    23:00 +16°C° 0.1 mm 6 mps 737 mmHg 61%

    26 October, Friday

    Time Temperature Precipitation Wind Pressure Humidity
    00:00 +15°C° 0.1 mm 6 mps 736 mmHg 64%
    01:00 +15°C° 0.1 mm 6 mps 736 mmHg 68%
    02:00 +14°C° 0.4 mm 5 mps 736 mmHg 71%
    03:00 +14°C° 0.4 mm 5 mps 736 mmHg 75%
    04:00 +14°C° 0.4 mm 4 mps 736 mmHg 78%
    05:00 +14°C° 0.8 mm 4 mps 736 mmHg 79%
    06:00 +14°C° 0.8 mm 4 mps 736 mmHg 81%
    07:00 +14°C° 0.8 mm 4 mps 737 mmHg 82%
    08:00 +14°C° 0.3 mm 4 mps 737 mmHg 80%
    09:00 +15°C° 0.3 mm 4 mps 737 mmHg 78%
    10:00 +17°C° 0.3 mm 4 mps 737 mmHg 75%
    11:00 +18°C° 0.2 mm 4 mps 736 mmHg 71%
    12:00 +19°C° 0.2 mm 3 mps 736 mmHg 67%
    13:00 +20°C° 0.2 mm 3 mps 735 mmHg 62%
    14:00 +20°C° 0 mm 3 mps 735 mmHg 59%
    15:00 +21°C° 0 mm 3 mps 734 mmHg 55%
    16:00 +22°C° 0 mm 3 mps 734 mmHg 51%
    17:00 +21°C° 0 mm 4 mps 734 mmHg 55%
    18:00 +20°C° 0 mm 4 mps 734 mmHg 59%
    19:00 +19°C° 0 mm 4 mps 734 mmHg 63%
    20:00 +19°C° 0.2 mm 4 mps 735 mmHg 66%
    21:00 +18°C° 0.2 mm 4 mps 735 mmHg 68%
    22:00 +18°C° 0.2 mm 3 mps 735 mmHg 71%
    23:00 +18°C° 0.5 mm 3 mps 734 mmHg 73%

    27 October, Saturday

    Time Temperature Precipitation Wind Pressure Humidity
    00:00 +18°C° 0.5 mm 3 mps 734 mmHg 74%
    01:00 +17°C° 0.5 mm 3 mps 733 mmHg 75%
    02:00 +17°C° 0.2 mm 2 mps 733 mmHg 74%
    03:00 +17°C° 0.2 mm 2 mps 733 mmHg 72%
    04:00 +17°C° 0.2 mm 2 mps 733 mmHg 71%
    05:00 +18°C° 0 mm 2 mps 734 mmHg 66%
    06:00 +18°C° 0 mm 3 mps 734 mmHg 62%
    07:00 +19°C° 0 mm 3 mps 734 mmHg 57%
    08:00 +20°C° 0 mm 3 mps 734 mmHg 51%
    09:00 +21°C° 0 mm 2 mps 735 mmHg 46%
    10:00 +23°C° 0 mm 2 mps 735 mmHg 40%
    11:00 +24°C° 0 mm 2 mps 734 mmHg 38%
    12:00 +25°C° 0 mm 2 mps 734 mmHg 36%
    13:00 +26°C° 0 mm 1 mps 734 mmHg 34%
    14:00 +26°C° 0 mm 1 mps 733 mmHg 33%
    15:00 +26°C° 0 mm 1 mps 733 mmHg 32%
    16:00 +26°C° 0 mm 1 mps 733 mmHg 31%
    17:00 +26°C° 0 mm 2 mps 733 mmHg 34%
    18:00 +25°C° 0 mm 2 mps 733 mmHg 37%
    19:00 +24°C° 0 mm 2 mps 734 mmHg 41%
    20:00 +24°C° 0 mm 2 mps 734 mmHg 44%
    21:00 +22°C° 0 mm 3 mps 734 mmHg 47%
    22:00 +21°C° 0 mm 3 mps 734 mmHg 50%
    23:00 +21°C° 0 mm 3 mps 734 mmHg 56%

    28 October, Sunday

    Time Temperature Precipitation Wind Pressure Humidity
    00:00 +20°C° 0 mm 3 mps 734 mmHg 61%
    01:00 +20°C° 0 mm 3 mps 734 mmHg 66%
    02:00 +19°C° 0 mm 3 mps 734 mmHg 70%
    03:00 +19°C° 0 mm 3 mps 734 mmHg 73%
    04:00 +18°C° 0 mm 3 mps 734 mmHg 77%
    05:00 +19°C° 0 mm 3 mps 734 mmHg 74%
    06:00 +20°C° 0 mm 4 mps 734 mmHg 71%
    07:00 +21°C° 0 mm 4 mps 734 mmHg 68%
    08:00 +22°C° 0 mm 5 mps 733 mmHg 60%
    09:00 +25°C° 0 mm 5 mps 733 mmHg 53%
    10:00 +26°C° 0 mm 6 mps 733 mmHg 46%
    11:00 +27°C° 0 mm 6 mps 732 mmHg 42%
    12:00 +28°C° 0 mm 6 mps 731 mmHg 39%
    13:00 +29°C° 0 mm 6 mps 731 mmHg 36%
    14:00 +29°C° 0 mm 6 mps 730 mmHg 36%
    15:00 +29°C° 0 mm 6 mps 730 mmHg 36%
    16:00 +29°C° 0 mm 5 mps 729 mmHg 37%
    17:00 +27°C° 1 mm 6 mps 729 mmHg 43%
    18:00 +26°C° 1 mm 6 mps 730 mmHg 48%
    19:00 +23°C° 1 mm 7 mps 730 mmHg 54%
    20:00 +23°C° 0.8 mm 6 mps 730 mmHg 55%
    21:00 +22°C° 0.8 mm 5 mps 730 mmHg 56%
    22:00 +21°C° 0.8 mm 5 mps 730 mmHg 56%
    23:00 +21°C° 0 mm 5 mps 730 mmHg 56%

    29 October, Monday

    Time Temperature Precipitation Wind Pressure Humidity
    00:00 +20°C° 0 mm 4 mps 730 mmHg 56%
    01:00 +20°C° 0 mm 4 mps 730 mmHg 56%
    02:00 +19°C° 0 mm 4 mps 731 mmHg 57%
    03:00 +19°C° 0 mm 4 mps 731 mmHg 58%
    04:00 +19°C° 0 mm 3 mps 731 mmHg 59%
    05:00 +19°C° 0.2 mm 4 mps 732 mmHg 60%
    06:00 +19°C° 0.2 mm 4 mps 732 mmHg 61%
    07:00 +18°C° 0.2 mm 4 mps 732 mmHg 62%
    08:00 +20°C° 0 mm 3 mps 732 mmHg 58%
    09:00 +21°C° 0 mm 3 mps 732 mmHg 53%
    10:00 +23°C° 0 mm 2 mps 732 mmHg 49%
    11:00 +24°C° 0 mm 3 mps 731 mmHg 46%
    12:00 +25°C° 0 mm 3 mps 731 mmHg 43%
    13:00 +26°C° 0 mm 4 mps 730 mmHg 40%
    14:00 +25°C° 0.1 mm 5 mps 730 mmHg 42%
    15:00 +25°C° 0.1 mm 5 mps 730 mmHg 44%
    16:00 +23°C° 0.1 mm 6 mps 730 mmHg 47%
    17:00 +23°C° 0.1 mm 6 mps 730 mmHg 51%
    18:00 +22°C° 0.1 mm 6 mps 730 mmHg 55%
    19:00 +21°C° 0.1 mm 5 mps 730 mmHg 59%
    20:00 +21°C° 0.2 mm 6 mps 730 mmHg 60%
    21:00 +20°C° 0.2 mm 6 mps 730 mmHg 60%
    22:00 +20°C° 0.2 mm 6 mps 730 mmHg 60%
    23:00 +20°C° 0 mm 6 mps 730 mmHg 60%
    Show more